Gander International Airport

Jump to: basic info | weather | frequencies | runways | comments

Related pages: nearby airports | nearby navaids | notams | map

Basic information (top)

Codes: YQX CYQX
Location: lon 48.936901, lat -54.568100, elev 496 ft / 151 m msl
Status: medium_airport
Scheduled airline service: yes
Links: Wikipedia Mobile

Weather (top)

Current conditions (rec'd 2014/10/31 05:00Z):

CYQX 310500Z 27014G20KT 20SM FEW019 SCT250 05/02 A2971 RMK SC1CI3 SLP062

Airport forecast (rec'd 2014/10/31 06:45Z):

TAF CYQX 310542Z 3106/0106 26010G20KT P6SM FEW020 
      TEMPO 3108/3112 BKN020 
      BECMG 3112/3114 30012KT 
      BECMG 3120/3122 27008KT 
      RMK NXT FCST BY 311200Z

Frequencies (top)

Verify before use: may be inaccurate or out of date.

A/D: 128.5 MHz (APP/DEP)
ATIS: 124.8 MHz (ATIS)
GND: 121.9 MHz (GND)
OPS: 128.85 MHz (OUTCAST OPS)
RCO: 126.7 MHz (HALIFAX RDO)
TWR: 118.1 MHz (TWR)

Runways (top)

03/21: 10,200 x 200 ft (3,109 x 61 m) — paved — lighted

09/27 [CLOSED]: 1,875 x 50 ft (572 x 15 m) — paved — not lighted

13/31: 8,900 x 200 ft (2,713 x 61 m) — paved — lighted

Latest comments (top)

Gander hospitality: Our USAirways flight from Dublin to ... [read]

More... (top)

See also NOTAMs and nearby airports and navaids, or visit the Gander International Airport page at the main OurAirports website..